TimeMST,TemperatureF,Dew PointF,Humidity,Sea Level PressureIn,VisibilityMPH,Wind Direction,Wind SpeedMPH,Gust SpeedMPH,PrecipitationIn,Events,Conditions,WindDirDegrees,DateUTC
12:53 AM,10.9,7.0,84,30.42,10.0,North,6.9,-,N/A,,Clear,350,2014-01-15 07:53:00
1:53 AM,8.1,5.0,87,30.44,10.0,North,6.9,-,N/A,,Clear,10,2014-01-15 08:53:00
2:53 AM,9.0,5.0,84,30.45,10.0,North,6.9,-,N/A,,Scattered Clouds,350,2014-01-15 09:53:00
3:53 AM,9.0,5.0,84,30.43,10.0,North,8.1,-,N/A,,Clear,10,2014-01-15 10:53:00
4:53 AM,10.0,6.1,84,30.41,10.0,NNE,10.4,-,N/A,,Clear,30,2014-01-15 11:53:00
5:53 AM,10.0,6.1,84,30.42,10.0,NNE,10.4,-,N/A,,Clear,20,2014-01-15 12:53:00
6:53 AM,10.9,7.0,84,30.44,10.0,North,13.8,-,N/A,,Clear,350,2014-01-15 13:53:00
7:53 AM,10.9,6.1,81,30.47,10.0,NNE,9.2,-,N/A,,Clear,20,2014-01-15 14:53:00
8:53 AM,12.9,7.0,77,30.44,10.0,NNE,8.1,-,N/A,,Clear,20,2014-01-15 15:53:00
9:53 AM,24.1,12.0,60,30.38,10.0,NNW,15.0,21.9,N/A,,Clear,340,2014-01-15 16:53:00
10:53 AM,25.0,10.9,55,30.37,10.0,NW,10.4,-,N/A,,Clear,310,2014-01-15 17:53:00
12:53 PM,27.0,12.0,53,30.27,10.0,WNW,20.7,28.8,N/A,,Clear,300,2014-01-15 19:53:00
1:53 PM,27.0,10.9,51,30.26,10.0,NW,17.3,28.8,N/A,,Clear,310,2014-01-15 20:53:00
2:53 PM,27.0,10.9,51,30.25,8.0,WNW,21.9,33.4,N/A,,Clear,300,2014-01-15 21:53:00
3:53 PM,26.1,9.0,49,30.28,10.0,NW,18.4,24.2,N/A,,Clear,310,2014-01-15 22:53:00
4:53 PM,25.0,8.1,49,30.26,10.0,NW,16.1,31.1,N/A,,Clear,320,2014-01-15 23:53:00
5:53 PM,25.0,7.0,46,30.25,8.0,NW,20.7,36.8,N/A,,Clear,320,2014-01-16 00:53:00
6:53 PM,21.0,7.0,55,30.30,10.0,Variable,5.8,-,N/A,,Clear,0,2014-01-16 01:53:00
7:53 PM,19.0,6.1,57,30.32,10.0,North,9.2,-,N/A,,Clear,350,2014-01-16 02:53:00
8:14 PM,21.9,6.1,51,30.27,10.0,NNW,17.3,-,N/A,,Clear,330,2014-01-16 03:14:00
8:53 PM,18.0,6.1,60,30.32,10.0,North,11.5,-,N/A,,Clear,350,2014-01-16 03:53:00
9:53 PM,15.1,5.0,64,30.32,10.0,North,8.1,-,N/A,,Clear,360,2014-01-16 04:53:00
10:53 PM,14.0,5.0,67,30.27,10.0,North,10.4,-,N/A,,Clear,10,2014-01-16 05:53:00
11:53 PM,10.9,3.9,73,30.26,10.0,NNE,8.1,-,N/A,,Clear,30,2014-01-16 06:53:00